Date,TemperatureHighF,TemperatureAvgF,TemperatureLowF,DewpointHighF,DewpointAvgF,DewpointLowF,HumidityHigh,HumidityAvg,HumidityLow,PressureMaxIn,PressureMinIn,WindSpeedMaxMPH,WindSpeedAvgMPH,GustSpeedMaxMPH,PrecipitationSumIn
2014-1-28,31.1,29.6,27.1,23.6,22.4,20.6,83,74,68,30.29,30.17,12,1,12,0.00
2014-1-29,38.9,30.6,25.4,21.9,16.1,12.1,78,56,35,30.41,30.19,11,2,11,0.02
2014-1-30,51.1,39.9,24.3,46.6,32.5,15.6,92,75,57,30.22,29.94,17,5,19,0.00
2014-1-31,64.9,56.5,48.7,54.8,51.0,46.5,92,82,68,30.03,29.88,22,8,23,0.00
2014-2-1,71.6,63.2,54.4,65.7,60.3,51.3,95,91,80,29.97,29.85,24,8,25,0.00
2014-2-2,69.4,59.5,40.2,68.2,58.0,37.7,96,95,91,30.02,29.81,19,7,23,0.50
2014-2-3,52.0,42.9,38.9,45.1,39.6,36.5,93,88,76,30.11,29.93,17,5,20,0.01
2014-2-4,60.7,46.6,41.2,59.6,45.1,39.1,96,95,92,29.99,29.72,17,4,18,0.78
2014-2-5,47.8,41.6,36.6,40.5,36.4,29.9,95,82,67,30.27,29.98,21,5,24,0.01
2014-2-6,41.3,35.8,32.6,33.1,29.4,27.1,85,77,65,30.33,30.19,23,4,23,0.00
2014-2-7,40.1,36.3,31.9,34.8,30.5,27.0,87,80,73,30.24,30.10,17,4,17,0.00
2014-2-8,55.7,46.4,38.2,49.3,42.1,34.2,91,85,77,30.18,30.05,9,1,10,0.00
2014-2-9,59.5,54.6,47.4,56.3,52.3,45.1,95,92,87,30.11,29.99,9,1,12,0.01
2014-2-10,59.8,49.7,36.3,58.4,48.4,34.2,96,95,94,30.05,29.95,18,4,18,0.33
2014-2-11,36.8,35.3,34.3,34.8,33.5,32.5,95,93,90,30.09,29.93,20,5,20,0.93
2014-2-12,39.6,35.8,31.7,36.8,33.4,29.7,95,91,85,30.00,29.91,18,4,19,0.00
2014-2-13,57.4,41.3,28.0,41.8,35.2,26.5,96,81,48,30.11,29.88,19,1,19,0.01
2014-2-14,68.4,54.2,36.4,61.1,49.6,34.8,96,85,59,29.98,29.82,29,4,29,0.00
2014-2-15,64.5,50.4,38.0,44.7,39.0,34.6,92,68,36,30.22,29.97,13,2,13,0.00
2014-2-16,71.1,57.7,43.3,63.8,54.2,41.1,100,88,74,30.17,29.99,16,3,18,0.00
2014-2-17,74.5,66.6,60.8,67.7,63.1,58.6,95,89,78,30.13,29.96,20,5,22,0.00
2014-2-18,74.6,65.8,61.9,67.3,62.9,60.7,97,91,75,30.09,29.96,20,4,24,0.00
2014-2-19,74.7,67.0,63.4,67.5,64.3,62.2,97,92,73,30.01,29.84,22,6,26,0.00
2014-2-20,74.8,68.2,59.9,69.3,65.2,45.1,96,91,59,30.00,29.78,27,9,30,1.02
2014-2-21,65.9,55.5,45.1,46.3,37.2,27.5,89,54,24,30.17,29.98,16,2,21,0.00
2014-2-22,66.9,56.3,43.3,58.4,45.3,38.6,92,70,38,30.11,29.90,20,3,20,0.00
2014-2-23,69.0,64.4,60.7,67.8,62.8,58.4,96,95,91,29.97,29.88,7,0,7,0.96
2014-2-24,64.9,61.7,55.4,62.7,58.7,53.3,96,90,83,30.10,29.95,14,2,16,0.01
2014-2-25,68.4,61.8,54.9,65.8,60.0,53.1,96,94,89,30.04,29.87,12,1,12,0.27
2014-2-26,55.1,45.3,39.8,53.7,41.7,35.2,95,87,71,30.05,29.84,24,5,26,0.59
2014-2-27,54.7,43.3,33.3,38.7,34.0,28.9,96,72,42,30.17,29.88,11,1,11,0.00
2014-2-28,61.2,53.0,38.8,57.6,49.1,36.8,95,87,77,29.93,29.83,21,4,23,0.02
2014-3-1,74.3,66.5,59.1,67.8,63.1,57.1,95,89,79,30.10,29.91,23,6,26,0.00
2014-3-2,74.3,65.9,41.6,68.6,62.9,38.4,95,90,82,30.07,29.90,25,8,25,0.20
2014-3-3,42.3,37.6,34.2,39.9,33.6,27.6,94,85,76,30.18,29.97,20,6,21,0.07
2014-3-4,34.9,33.4,31.5,33.5,31.0,27.6,99,91,77,30.13,29.96,16,1,18,0.09
2014-3-5,51.7,42.8,34.5,46.8,40.4,32.7,97,91,82,30.01,29.93,10,2,11,0.02
2014-3-6,57.1,48.6,42.8,46.5,43.8,40.4,95,84,65,30.06,29.94,21,4,21,0.00
2014-3-7,58.7,47.6,37.4,50.1,44.4,35.8,95,89,71,30.09,29.93,12,2,12,0.00
2014-3-8,66.3,58.7,50.3,58.0,54.1,48.1,93,85,73,30.11,29.93,13,2,13,0.00
2014-3-9,67.0,59.9,55.3,59.2,56.0,52.9,94,87,73,30.24,30.09,12,2,12,0.00
2014-3-10,71.7,59.1,50.4,60.2,54.7,49.0,100,86,63,30.14,29.88,9,1,12,0.01
2014-3-11,73.7,62.4,56.7,64.1,59.1,54.3,96,89,67,29.90,29.66,19,2,23,0.10
2014-3-12,65.9,60.3,49.2,59.2,48.5,35.2,94,68,39,30.13,29.67,23,6,29,0.01
2014-3-13,63.9,52.0,38.6,43.6,37.3,31.5,85,60,34,30.35,30.10,14,1,15,0.00
2014-3-14,69.4,57.7,44.4,57.9,51.9,41.8,94,82,61,30.17,30.01,22,4,22,0.00
2014-3-15,69.8,65.1,61.7,65.1,61.9,57.9,95,90,83,30.01,29.71,19,5,22,0.15
2014-3-16,67.7,62.3,46.5,66.2,58.1,40.1,96,86,71,29.84,29.66,24,7,27,0.37
2014-3-17,53.4,46.6,42.8,43.9,39.5,36.3,85,76,65,29.86,29.77,19,4,21,0.00
2014-3-20,74.6,68.1,55.4,56.0,51.5,46.6,91,58,40,30.18,30.01,10,1,10,0.00
2014-3-21,71.0,60.6,50.5,63.4,56.7,48.6,96,88,68,30.08,29.94,19,2,19,0.00
2014-3-22,75.3,68.0,62.2,68.2,64.7,60.5,95,90,77,30.05,29.91,11,1,11,0.00
2014-3-23,67.5,60.9,51.7,66.5,57.4,47.0,97,89,71,30.13,29.96,21,3,26,0.14
2014-3-24,65.5,55.5,49.2,51.9,46.9,41.9,87,73,59,30.12,29.98,11,1,13,0.00
2014-3-25,67.2,56.2,44.4,47.3,40.2,30.6,90,60,26,30.30,30.02,18,2,20,0.00
2014-3-26,58.0,53.1,47.8,48.9,42.1,36.4,86,67,48,30.26,30.02,18,5,21,0.01
2014-3-27,69.9,63.0,52.8,66.2,59.9,48.7,94,89,85,30.04,29.81,29,10,31,0.09
2014-3-28,78.6,70.9,61.1,72.8,68.3,58.2,96,92,79,29.89,29.77,21,6,28,0.22
2014-3-29,75.0,64.0,54.6,60.9,53.8,45.3,96,73,38,30.17,29.85,20,3,20,0.02
2014-3-30,70.0,59.0,47.9,51.9,47.9,41.7,96,69,37,30.29,30.05,16,2,16,0.00
2014-3-31,70.9,61.2,47.8,61.7,56.0,46.2,98,83,69,30.10,29.95,22,5,22,0.00
2014-4-1,74.9,69.0,64.1,68.3,65.4,61.2,94,88,79,30.07,29.96,20,5,20,0.00
2014-4-2,77.2,72.0,68.2,71.0,68.6,65.8,93,89,79,30.03,29.90,24,10,25,0.00
2014-4-3,76.8,72.4,69.3,71.3,69.3,66.9,95,90,82,29.92,29.82,23,10,27,0.00
2014-4-4,75.4,69.4,58.8,70.3,60.3,46.1,94,74,52,30.05,29.78,21,4,27,0.04
2014-4-5,70.5,63.3,57.8,53.9,49.0,44.1,72,60,52,30.04,29.86,15,6,17,0.00
2014-4-6,75.1,62.4,53.1,71.2,59.6,50.8,94,91,72,29.89,29.60,20,4,21,0.05
2014-4-7,71.1,60.0,53.6,57.3,53.5,50.3,95,80,56,29.93,29.63,17,4,19,0.01
2014-4-8,71.2,61.7,50.2,53.8,47.9,39.0,92,64,35,30.11,29.86,28,6,30,0.00
2014-4-9,75.2,58.5,42.8,52.2,45.1,35.9,95,67,29,30.33,30.08,17,1,17,0.00
2014-4-10,73.8,64.3,52.9,59.0,55.7,50.9,95,75,53,30.23,30.05,24,5,24,0.00
2014-4-11,75.4,68.3,63.4,62.0,60.2,58.2,90,76,57,30.19,30.02,20,4,20,0.00
2014-4-12,76.0,69.4,64.0,66.0,63.3,61.4,94,82,63,30.16,29.94,18,4,19,0.00
2014-4-13,76.0,72.1,68.4,70.3,68.6,65.7,92,89,80,29.96,29.76,24,7,26,0.01
2014-4-14,78.3,65.2,46.9,71.5,61.8,40.6,93,89,76,30.01,29.74,26,7,28,0.53
2014-4-15,60.9,50.6,41.7,41.7,35.9,29.8,87,60,34,30.22,30.00,25,6,30,0.00
2014-4-16,62.7,53.7,42.3,51.3,43.2,35.9,90,68,52,30.23,30.03,16,2,16,0.00
2014-4-17,64.0,59.1,54.6,56.5,53.2,49.0,89,81,73,30.13,30.03,17,3,18,0.00
2014-4-18,74.9,63.3,52.7,60.9,56.6,50.7,94,80,57,30.18,30.02,13,1,16,0.00
2014-4-19,79.4,66.9,55.9,61.8,58.3,54.0,95,76,48,30.26,30.05,11,1,11,0.00
2014-4-20,80.2,68.0,56.6,63.1,58.2,54.9,98,74,45,30.26,30.05,13,1,16,0.01
2014-4-21,78.0,67.9,55.6,65.5,60.0,53.9,96,78,52,30.15,29.96,19,2,19,0.00
2014-4-22,83.0,72.7,66.0,67.7,64.8,62.0,94,78,51,30.04,29.91,13,1,13,0.00
2014-4-23,80.5,71.4,63.4,69.3,64.8,60.8,96,81,56,30.06,29.87,15,2,17,0.00
2014-4-24,78.3,72.2,66.9,69.3,67.0,63.1,94,84,63,29.97,29.82,22,4,22,0.01
2014-4-25,86.1,74.5,64.9,69.9,65.9,63.1,96,77,49,30.08,29.87,12,1,12,0.00
2014-4-26,80.7,74.3,66.5,73.0,69.7,64.7,95,86,70,29.98,29.81,20,6,21,0.00
2014-4-27,80.5,77.0,74.1,75.0,72.2,70.6,91,85,76,29.82,29.63,29,12,33,0.00
2014-4-28,82.3,76.9,72.9,75.1,72.7,70.6,95,87,76,29.74,29.59,24,8,24,0.02
2014-4-29,86.1,76.4,63.5,72.3,67.6,54.2,94,76,54,29.85,29.61,15,2,16,0.00
2014-4-30,71.9,63.7,55.2,55.1,47.8,43.6,75,57,42,30.08,29.84,17,4,20,0.00
2014-5-1,70.7,61.1,48.8,54.5,46.7,37.3,92,62,30,30.18,29.99,15,2,17,0.00
2014-5-2,78.0,65.0,50.7,57.3,49.8,42.8,93,62,31,30.11,29.94,14,1,14,0.00
2014-5-3,83.6,69.9,53.8,65.0,57.9,51.8,95,69,39,30.14,29.95,21,2,21,0.00
2014-5-4,84.1,71.5,59.6,64.7,57.6,46.1,94,66,27,30.21,30.04,18,2,18,0.00
2014-5-5,78.5,67.9,55.8,65.3,60.3,54.0,96,78,56,30.11,29.93,20,4,21,0.01
2014-5-6,79.6,72.6,63.6,66.5,62.9,60.3,90,72,57,30.01,29.88,23,5,24,0.00
2014-5-7,81.3,75.5,69.7,72.2,68.5,64.6,92,80,62,30.06,29.86,22,8,23,0.00
2014-5-8,81.9,76.3,74.7,73.2,72.1,69.7,91,87,68,30.03,29.90,31,11,31,0.02
2014-5-9,81.5,76.8,72.4,75.2,73.1,69.0,93,89,78,30.03,29.90,19,7,21,0.02
2014-5-10,83.0,76.3,71.2,74.9,71.4,67.6,92,85,72,30.02,29.87,23,8,23,0.00
2014-5-11,84.5,78.7,74.5,77.3,74.3,71.3,94,87,77,30.00,29.88,28,10,28,0.15
2014-5-12,82.3,78.5,76.5,76.0,74.1,73.0,91,87,79,30.03,29.87,27,12,28,0.03
2014-5-13,81.8,73.0,67.0,73.3,69.0,64.1,92,87,69,30.08,29.95,17,3,18,0.02
2014-5-14,67.0,62.2,53.2,64.6,56.9,48.9,94,83,62,30.16,29.98,24,6,24,0.14
2014-5-15,74.9,60.5,45.2,55.5,48.6,43.4,95,69,37,30.32,30.13,11,1,12,0.01
2014-5-16,80.2,69.7,56.0,61.8,57.4,53.4,93,67,46,30.23,30.05,24,4,24,0.00
2014-5-17,79.3,72.1,65.1,65.4,63.0,58.7,88,74,54,30.18,30.01,24,6,25,0.00
2014-5-18,82.7,72.7,62.3,68.6,62.9,52.3,96,74,36,30.22,30.06,15,2,16,0.00
2014-5-19,80.9,72.8,62.7,68.9,65.2,60.7,95,78,55,30.18,30.04,20,3,20,0.00
2014-5-20,83.0,75.8,70.5,71.0,68.7,66.4,91,79,59,30.20,30.05,18,3,21,0.00
2014-5-21,83.3,76.2,68.7,71.7,69.1,66.5,93,80,61,30.22,30.05,17,3,18,0.00
2014-5-22,85.6,75.3,63.6,71.9,66.5,61.8,96,76,50,30.23,30.07,15,2,17,0.00
2014-5-23,85.9,74.6,64.5,71.8,66.6,60.8,96,78,44,30.21,30.06,14,2,15,0.01
2014-5-24,84.9,75.7,66.5,71.7,67.9,64.4,95,78,54,30.16,30.02,16,3,18,0.00
2014-5-25,84.5,75.9,67.1,72.4,68.7,65.3,96,80,59,30.14,29.98,17,3,20,0.00
2014-5-26,83.8,77.0,69.8,72.8,70.6,67.4,94,81,60,30.15,30.01,19,4,19,0.00
2014-5-27,78.7,75.4,70.4,73.9,71.8,68.7,95,89,82,30.03,29.88,23,4,23,1.10
2014-5-28,81.4,74.1,69.3,73.2,70.0,67.5,96,88,70,29.94,29.75,32,2,32,2.23
2014-5-29,83.4,74.9,67.6,71.7,69.0,66.1,96,83,64,29.91,29.78,13,1,14,0.00
2014-5-30,86.9,77.6,68.1,73.7,70.3,66.3,96,79,57,29.95,29.79,17,2,19,0.00
2014-5-31,86.0,78.0,70.7,75.7,71.8,68.6,94,82,64,29.98,29.86,15,2,17,0.00
2014-6-1,84.7,78.0,72.8,75.7,73.2,68.9,93,85,70,30.03,29.90,19,5,24,0.58
2014-6-2,85.2,77.9,74.1,76.4,73.4,71.6,92,86,69,30.09,29.95,15,4,16,0.15
2014-6-3,84.5,78.9,73.5,75.7,73.1,71.5,94,83,68,30.08,29.96,14,2,17,0.00
2014-6-4,87.0,79.3,72.9,76.1,73.3,71.1,95,82,66,30.02,29.88,16,2,16,0.01
2014-6-5,87.2,80.1,71.9,76.9,73.8,70.1,96,82,67,30.00,29.83,16,3,19,0.00
2014-6-6,90.4,81.8,72.4,76.8,74.0,70.6,96,78,56,30.07,29.89,14,2,15,0.00
2014-6-7,89.5,80.5,73.2,77.1,74.0,71.4,95,82,59,30.06,29.92,14,2,17,0.00
2014-6-8,89.5,81.3,73.8,76.9,74.4,71.8,95,80,59,30.07,29.89,18,2,19,0.00
2014-6-9,87.4,79.1,71.1,76.5,73.8,68.8,94,85,65,29.96,29.79,25,4,25,0.78
2014-6-10,87.7,78.7,69.6,76.2,70.9,65.0,95,79,48,29.92,29.75,21,3,25,2.98
2014-6-11,89.7,78.5,66.5,74.4,68.6,64.7,95,74,49,30.01,29.83,11,1,11,0.00
2014-6-12,90.2,80.7,74.2,79.7,75.8,72.2,95,86,62,30.06,29.83,16,1,21,0.60
2014-6-13,86.3,78.0,71.3,77.4,72.7,67.3,95,84,69,30.05,29.92,18,1,18,1.13
2014-6-14,87.1,78.9,70.0,75.5,72.5,68.5,96,82,59,30.08,29.93,18,3,19,0.01
2014-6-15,87.3,81.7,75.7,78.6,75.3,72.7,93,81,68,30.06,29.91,20,5,20,0.00
2014-6-16,87.6,82.2,77.2,77.9,75.9,74.4,92,82,69,30.18,30.00,19,5,19,0.00
2014-6-17,89.0,82.9,77.6,77.8,75.7,73.0,90,80,60,30.19,30.05,17,5,18,0.00
2014-6-18,88.5,83.1,77.9,77.6,75.4,73.2,90,78,61,30.16,30.04,18,5,19,0.00
2014-6-19,89.4,83.4,77.1,77.0,74.8,71.8,89,76,57,30.20,30.03,16,3,17,0.00
2014-6-20,89.5,81.3,73.4,76.8,72.7,68.0,95,77,52,30.22,30.03,12,1,14,0.00
2014-6-21,91.1,81.6,73.1,76.1,73.3,70.3,95,77,52,30.17,29.97,12,1,13,0.00
2014-6-22,88.0,80.5,75.2,77.8,75.5,72.8,95,85,66,30.09,29.93,12,1,14,0.00
2014-6-23,89.7,83.0,78.7,76.9,74.5,66.9,89,77,50,30.07,29.92,18,3,19,0.00
2014-6-24,85.5,78.2,72.8,78.5,74.1,65.7,95,87,54,30.15,30.01,18,1,23,1.35
2014-6-25,81.2,75.2,72.5,75.6,72.8,70.4,95,92,80,30.13,30.02,16,1,18,0.58
2014-6-26,85.9,77.7,73.0,79.1,73.8,68.6,95,88,76,30.09,29.99,25,2,36,0.59
2014-6-27,77.3,74.5,70.5,73.3,71.4,68.7,96,90,78,30.06,29.94,16,4,21,4.24
2014-6-28,85.5,81.3,75.2,80.2,77.6,72.4,93,89,81,30.10,29.97,23,7,23,0.00
2014-6-29,88.3,83.2,78.6,79.5,77.7,75.6,91,84,71,30.21,30.05,16,4,19,0.00
2014-6-30,88.6,83.1,77.8,78.1,76.7,74.8,93,82,66,30.16,29.98,20,4,20,0.00
2014-7-1,89.5,83.4,77.7,79.3,76.6,75.0,93,81,65,30.12,29.95,15,2,15,0.00
2014-7-2,91.9,82.2,74.6,78.5,74.6,70.1,95,79,57,30.16,29.99,12,1,12,0.00
2014-7-3,91.1,79.3,71.7,77.4,71.5,68.3,92,78,56,30.22,30.02,24,1,24,1.62
2014-7-4,86.7,78.9,70.6,75.7,71.6,68.0,94,79,65,30.27,30.09,13,1,13,0.00
2014-7-5,91.5,80.5,69.5,73.9,68.9,65.3,89,70,43,30.27,30.09,12,1,12,0.00
2014-7-6,89.6,80.6,71.9,76.2,71.8,68.1,95,77,52,30.20,30.02,14,1,14,0.00
2014-7-7,89.6,81.4,72.2,77.0,73.8,70.4,96,79,57,30.16,29.99,16,1,17,0.00
2014-7-8,89.1,81.1,75.4,78.0,75.4,70.2,94,83,64,30.19,29.99,17,1,17,0.32
2014-7-9,94.2,83.5,76.1,78.6,74.9,65.8,95,77,41,30.21,30.04,13,1,14,0.00
2014-7-10,90.1,82.5,74.9,78.5,75.3,73.1,95,80,61,30.21,30.03,14,1,16,0.00
2014-7-11,94.0,82.9,74.1,79.3,75.0,71.1,96,79,48,30.27,30.07,14,0,15,0.00
2014-7-12,93.6,80.2,73.4,77.7,73.5,70.9,95,82,54,30.27,30.07,20,1,23,0.49
2014-7-13,91.3,78.5,71.3,79.9,73.7,68.2,96,86,61,30.21,29.99,23,1,23,0.61
2014-7-14,89.3,80.2,70.3,79.0,74.3,68.8,96,83,62,30.14,29.98,16,0,16,0.00
2014-7-15,80.9,78.4,74.2,77.2,74.5,71.9,95,88,79,30.07,29.95,14,1,15,0.00
2014-7-16,88.6,79.7,73.3,72.7,71.1,66.4,95,77,52,30.10,29.94,10,1,11,0.00
2014-7-17,80.5,76.5,73.0,76.3,70.5,63.9,93,82,69,30.05,29.90,20,3,23,0.52
2014-7-18,81.1,76.2,73.2,77.3,74.0,71.0,96,93,86,29.97,29.84,22,1,23,2.84
2014-7-19,82.2,75.7,71.1,76.4,72.5,69.2,94,90,82,30.07,29.93,10,2,11,0.04
2014-7-20,89.6,80.8,74.0,79.1,75.4,71.9,94,84,64,30.11,29.97,9,0,9,0.00
2014-7-21,91.7,83.2,74.8,80.7,77.2,73.0,95,83,61,30.15,29.98,9,1,10,0.00
2014-7-22,89.8,82.5,76.2,77.9,75.2,72.8,92,79,61,30.15,30.01,11,1,11,0.00
2014-7-23,90.6,81.3,74.0,77.7,74.3,71.1,94,80,58,30.15,29.98,18,1,18,0.01
2014-7-24,89.3,80.5,71.9,77.4,74.1,70.1,94,82,63,30.10,29.93,12,1,13,0.00
2014-7-25,92.7,82.3,76.4,79.7,76.6,74.5,95,84,61,30.14,29.98,12,1,14,0.00
2014-7-26,91.9,83.9,76.8,79.9,77.0,74.5,95,80,59,30.18,30.00,16,2,16,0.00
2014-7-27,92.9,84.6,76.7,79.4,76.9,74.5,95,79,56,30.20,30.03,17,2,17,0.00
2014-7-28,93.2,85.0,77.1,79.7,76.9,74.3,94,78,58,30.22,30.04,14,1,14,0.00
2014-7-29,89.3,81.8,74.5,76.1,72.9,70.0,90,75,56,30.18,30.02,11,1,12,0.00
2014-7-30,89.4,80.8,72.3,72.9,69.8,66.1,93,71,53,30.17,30.02,13,2,13,0.00
2014-7-31,89.1,81.5,74.0,77.3,72.6,66.1,90,75,61,30.11,29.96,14,3,14,0.02
2014-8-1,87.0,79.7,73.3,78.6,75.0,71.3,95,86,72,30.04,29.93,15,1,17,1.26
2014-8-2,84.1,76.8,71.1,75.0,71.9,69.3,94,85,70,30.08,29.93,12,1,12,0.00
2014-8-3,85.4,77.4,73.4,77.8,74.1,71.3,95,90,72,30.07,29.95,11,1,11,0.07
2014-8-4,88.1,80.6,74.4,78.1,75.4,71.8,95,85,60,30.11,29.95,16,1,19,0.01
2014-8-5,91.7,83.0,76.4,78.5,76.0,73.8,95,81,58,30.18,30.01,13,1,14,0.00
2014-8-6,91.9,83.5,76.0,79.9,75.9,73.4,96,79,58,30.16,30.00,14,1,16,0.00
2014-8-7,89.6,81.5,76.9,79.7,76.6,73.3,95,86,64,30.07,29.94,15,1,23,0.38
2014-8-8,91.4,83.6,76.7,80.2,77.6,74.8,95,83,65,30.12,29.95,21,2,21,0.17
2014-8-9,90.4,81.8,76.7,80.4,77.0,74.0,96,86,67,30.15,29.98,15,0,15,0.08
2014-8-10,88.6,82.3,77.9,80.7,77.7,72.6,95,86,71,30.16,29.98,13,0,14,0.02
2014-8-11,94.1,83.2,73.2,80.4,76.5,70.7,95,82,56,30.15,29.99,23,1,26,0.88
2014-8-12,91.7,81.8,73.6,77.7,74.0,71.7,96,79,53,30.10,29.95,13,1,13,0.01
2014-8-13,89.0,81.3,73.3,74.5,71.2,67.4,88,72,52,30.14,29.98,11,2,11,0.00
2014-8-14,89.5,79.4,70.7,74.8,69.1,66.3,88,72,53,30.14,30.00,10,1,10,0.00
2014-8-15,91.1,81.6,73.9,77.3,72.4,66.7,89,74,59,30.13,29.97,12,1,12,0.00
2014-8-16,91.3,82.9,76.2,79.8,76.7,74.3,95,82,62,30.12,29.96,16,2,18,0.00
2014-8-17,89.5,83.5,79.1,80.2,77.8,73.1,91,84,65,30.12,29.99,20,2,23,0.13
2014-8-18,89.3,82.8,77.9,79.9,77.5,70.7,94,84,68,30.10,29.95,17,1,18,0.00
2014-8-19,90.2,79.5,75.2,80.5,75.8,70.5,94,89,66,30.09,29.92,13,1,16,0.39
2014-8-20,90.4,80.2,74.2,80.3,76.0,72.4,96,87,64,30.14,29.95,14,1,16,0.38
2014-8-21,92.2,84.6,78.3,80.8,77.4,70.7,95,80,50,30.21,30.04,19,2,19,0.00
2014-8-22,94.2,84.2,75.5,79.0,75.8,71.7,96,78,50,30.22,30.03,11,1,12,0.00
2014-8-23,93.5,84.3,76.2,79.5,76.3,72.6,95,78,52,30.16,29.97,10,0,10,0.00
2014-8-24,94.7,84.5,76.0,79.2,76.3,74.2,95,78,53,30.10,29.93,13,0,13,0.00
2014-8-25,94.5,81.6,74.7,79.7,75.4,69.1,93,83,57,30.06,29.90,17,1,21,0.24
2014-8-26,89.6,80.8,73.4,78.8,74.5,71.6,95,82,60,30.09,29.90,13,2,15,0.01
2014-8-27,88.3,81.0,74.1,77.9,74.6,71.3,92,82,64,30.09,29.95,14,2,14,0.02
2014-8-28,86.3,80.9,75.3,79.1,75.1,73.1,94,83,68,30.06,29.93,21,2,21,0.01
2014-8-29,84.8,79.6,74.8,78.8,75.1,71.7,93,86,75,30.01,29.91,16,3,19,0.14
2014-8-30,77.8,75.6,73.2,76.1,73.8,71.7,96,94,91,30.00,29.90,13,2,13,2.54
2014-8-31,88.7,81.3,75.4,80.6,76.5,73.3,95,86,67,30.12,29.98,18,3,18,0.00
2014-9-1,88.5,82.8,78.0,80.2,77.5,74.8,93,84,70,30.08,29.97,22,4,22,0.02
2014-9-2,88.8,83.6,79.5,80.0,77.7,75.8,92,83,68,30.12,29.97,19,3,20,0.01
2014-9-3,89.6,82.6,76.2,79.0,76.3,74.2,95,82,67,30.14,29.98,18,1,20,0.00
2014-9-4,91.0,82.5,75.6,78.9,76.1,73.4,94,82,62,30.16,30.00,12,1,13,0.00
2014-9-5,89.5,80.8,75.3,79.4,75.7,71.5,96,85,65,30.21,30.04,20,1,22,0.04
2014-9-6,89.7,78.4,73.8,78.9,74.4,70.9,96,88,67,30.17,29.98,21,1,21,0.73
2014-9-7,90.0,78.1,72.2,77.9,73.5,70.4,96,87,61,30.15,29.96,15,0,16,0.15
2014-9-8,90.9,79.6,72.9,78.8,74.6,71.6,96,86,61,30.13,29.97,14,0,14,0.18
2014-9-9,91.0,81.7,75.6,79.0,76.4,74.4,96,85,63,30.13,29.94,14,1,15,0.00
2014-9-10,90.6,82.3,75.3,79.3,76.6,73.6,96,84,60,30.02,29.89,17,2,17,0.00
2014-9-11,92.5,83.2,77.7,80.4,77.3,73.3,95,83,58,30.09,29.92,12,1,12,0.18
2014-9-12,83.2,78.4,74.3,78.9,75.7,71.9,95,92,84,30.06,29.97,17,0,21,0.65
2014-9-13,76.1,71.2,66.5,72.9,67.9,63.2,95,89,80,30.16,30.00,16,4,18,0.00
2014-9-14,80.2,70.9,65.5,73.1,67.0,63.1,93,88,77,30.18,30.08,12,3,12,0.00
2014-9-15,90.3,79.0,69.5,78.3,72.8,67.4,94,83,59,30.19,30.05,13,2,13,0.00
2014-9-16,85.2,78.5,74.6,79.1,75.1,72.6,95,89,69,30.14,29.99,15,1,16,0.34
2014-9-17,86.7,76.8,73.7,77.6,73.8,71.6,96,91,70,30.08,29.91,20,1,20,1.83
2014-9-18,79.3,75.4,73.0,74.8,71.8,68.2,92,89,84,29.97,29.87,13,0,14,0.47
2014-9-19,83.5,78.0,73.3,77.2,72.9,69.2,87,84,77,30.02,29.88,13,2,13,0.83
2014-9-20,87.7,79.7,70.7,74.9,71.4,66.0,86,76,61,30.07,29.92,15,3,17,0.00
2014-9-21,88.4,78.2,69.5,74.2,70.0,65.1,87,77,57,30.16,29.96,12,1,13,0.00
2014-9-22,86.1,77.7,70.2,75.5,69.2,58.8,87,76,61,30.17,30.01,15,2,15,0.00
2014-9-23,82.3,71.6,62.5,63.2,59.6,56.3,81,67,44,30.20,30.04,12,2,12,0.00
2014-9-24,84.3,73.0,61.9,68.6,63.7,57.0,85,73,52,30.21,30.03,15,2,15,0.00
2014-9-25,81.1,75.5,69.0,70.3,67.7,64.0,85,77,64,30.21,30.06,17,3,18,0.00
2014-9-26,83.8,74.8,67.0,69.1,65.9,62.3,85,75,55,30.16,30.01,13,2,13,0.00
2014-9-27,82.0,73.9,68.4,69.6,66.5,64.0,86,78,64,30.08,29.96,15,2,15,0.00
2014-9-28,81.7,75.8,72.4,75.2,70.1,67.2,86,83,78,30.03,29.92,14,2,15,0.10
2014-9-29,84.5,76.9,71.4,75.6,70.9,67.0,87,82,71,30.01,29.87,13,2,13,0.00
2014-9-30,87.7,79.2,71.7,75.4,72.1,67.4,88,79,63,29.98,29.83,12,2,13,0.00
2014-10-1,86.3,79.6,74.7,78.2,74.2,69.8,87,84,75,29.93,29.82,19,3,19,0.75
2014-10-2,87.7,82.4,78.2,78.5,76.2,73.8,87,82,69,30.01,29.87,21,4,24,0.02
2014-10-3,81.6,72.9,64.0,76.3,64.9,58.6,88,77,52,30.14,29.87,22,1,22,1.06
2014-10-4,73.8,63.5,56.4,59.3,51.3,43.4,86,68,36,30.21,29.98,17,2,17,0.00
2014-10-5,80.4,68.0,54.2,66.0,59.1,50.4,87,74,54,30.09,29.89,23,2,23,0.00
2014-10-6,80.2,68.0,63.8,71.6,63.1,59.5,89,85,68,30.05,29.85,25,2,30,0.12
2014-10-7,85.6,75.3,64.7,75.2,69.2,61.1,89,82,67,30.09,29.89,14,2,14,0.01
2014-10-8,87.8,77.1,68.3,75.2,70.0,64.6,89,80,55,30.18,29.99,10,1,11,0.00
2014-10-9,85.7,78.8,72.9,76.2,72.9,68.5,88,82,68,30.13,29.98,17,3,18,0.00
2014-10-10,85.8,80.5,75.1,76.4,73.9,70.3,86,81,69,30.07,29.96,21,3,21,0.33
2014-10-11,86.6,76.5,70.6,74.8,70.8,66.9,89,83,64,30.12,29.93,28,0,28,0.90
2014-10-12,85.3,77.1,68.8,76.4,71.2,65.1,89,83,66,30.06,29.86,20,3,20,0.01
2014-10-13,84.3,72.6,60.0,77.0,67.7,55.3,88,85,70,29.87,29.74,33,6,33,0.85
2014-10-14,73.7,62.9,55.0,55.8,53.1,49.5,89,73,43,30.07,29.87,20,3,20,0.01
2014-10-15,79.3,64.6,52.2,61.3,53.6,48.5,88,70,41,30.18,29.94,9,1,12,0.00
2014-10-16,84.2,68.9,55.5,67.0,59.5,52.0,89,75,40,30.10,29.90,12,1,15,0.01
2014-10-17,81.8,71.2,60.9,69.2,63.9,57.2,89,79,62,30.09,29.86,18,1,18,0.01
2014-10-18,83.7,71.9,62.4,69.1,63.8,58.8,89,77,53,30.15,29.93,12,1,12,0.01
2014-10-19,77.4,68.3,59.7,63.5,59.0,55.0,85,73,58,30.16,30.01,16,3,16,0.00
2014-10-20,79.3,66.8,57.0,62.5,57.6,53.0,87,74,50,30.14,29.96,11,1,11,0.00
2014-10-21,79.3,67.0,56.3,64.7,58.5,52.4,88,76,52,30.14,29.95,14,2,14,0.00
2014-10-22,78.8,68.4,59.7,63.4,59.5,55.0,89,75,54,30.17,29.98,16,2,16,0.01
2014-10-23,72.5,63.3,54.4,57.9,54.5,50.6,87,74,58,30.20,30.02,11,1,11,0.00
2014-10-24,75.3,61.2,50.4,57.5,52.1,47.0,88,74,43,30.22,30.04,11,1,11,0.00
2014-10-25,82.0,64.7,50.9,61.5,54.6,47.5,88,73,42,30.26,30.03,6,0,6,0.01
2014-10-26,82.8,66.8,53.7,64.2,57.3,50.3,89,74,39,30.18,29.94,11,1,11,0.00
2014-10-27,80.5,70.7,59.0,70.1,64.4,55.4,89,81,65,30.06,29.92,22,3,22,0.01
2014-10-28,81.7,74.1,68.1,72.7,68.0,63.8,88,82,63,30.13,29.93,16,1,16,0.01
2014-10-29,81.0,69.5,61.6,71.9,64.5,55.9,89,84,71,30.20,30.01,16,2,16,0.01
2014-10-30,74.7,62.7,53.7,56.9,51.4,48.3,88,69,41,30.18,30.02,12,1,12,0.00
2014-10-31,73.4,61.8,51.1,53.8,50.0,47.1,89,68,40,30.21,30.00,21,2,21,0.01
2014-11-1,60.4,51.8,44.2,48.3,37.8,29.2,79,60,37,30.42,30.18,18,2,18,0.00
2014-11-2,65.5,54.2,43.7,49.2,39.8,33.6,81,60,35,30.42,30.21,12,1,12,0.00
2014-11-3,73.8,64.1,55.5,61.9,55.1,46.2,83,73,63,30.32,30.16,20,6,20,0.00
2014-11-4,79.3,70.2,62.7,67.3,63.2,57.8,88,79,59,30.23,30.09,19,4,19,0.00
2014-11-5,79.4,70.9,65.4,71.3,66.3,61.4,88,86,75,30.14,30.04,15,2,15,0.83
2014-11-6,67.1,64.1,56.7,63.5,60.3,53.1,89,88,80,30.21,30.11,14,1,14,0.28
2014-11-7,61.3,54.6,48.5,53.5,46.7,40.9,92,76,51,30.25,29.98,18,2,18,0.00
2014-11-8,65.5,55.9,47.6,54.7,48.5,43.6,89,78,49,30.12,29.94,11,0,11,0.01
2014-11-9,70.4,57.3,48.1,54.7,50.0,45.0,92,78,54,30.16,29.90,10,1,10,0.01
2014-11-10,74.6,63.0,47.5,64.1,57.1,44.4,92,82,67,30.01,29.81,22,3,22,0.00
2014-11-11,78.0,66.0,49.9,68.9,60.8,46.3,92,84,67,30.03,29.82,18,3,18,0.04
2014-11-12,49.8,48.1,45.3,46.7,43.6,37.5,89,84,75,30.18,30.01,18,4,18,0.08
2014-11-13,45.8,42.0,35.0,38.1,33.2,27.5,89,71,59,30.32,30.17,18,5,20,0.12
2014-11-14,48.4,39.4,31.3,32.3,26.9,22.3,81,63,39,30.38,30.19,13,1,14,0.00
2014-11-15,59.7,47.1,39.5,52.7,34.1,25.5,84,61,51,30.22,29.96,17,4,17,0.00
2014-11-16,68.0,60.7,44.9,64.2,57.1,41.1,90,88,84,29.97,29.78,23,4,23,2.10
2014-11-17,48.7,41.9,36.7,42.2,33.6,25.5,90,74,42,30.31,29.92,24,6,24,0.00
2014-11-18,50.8,38.9,31.5,36.0,28.4,22.5,92,68,41,30.50,30.31,13,1,13,0.00
2014-11-19,60.8,47.8,31.1,51.9,42.1,28.2,90,81,63,30.37,30.15,20,3,20,0.00
2014-11-20,70.5,59.4,46.3,58.1,51.6,43.2,90,77,52,30.24,30.09,21,4,21,0.01
2014-11-21,70.0,63.7,58.7,59.2,55.4,53.2,85,75,60,30.19,30.08,21,7,21,0.02
2014-11-22,71.0,64.0,57.3,63.8,58.5,51.5,88,82,75,30.15,29.70,24,8,24,0.58
2014-11-23,72.3,65.9,60.6,63.4,60.7,57.0,89,84,67,29.71,29.50,22,4,22,2.51
2014-11-24,65.0,57.3,47.5,61.4,45.5,35.6,89,66,38,30.05,29.66,20,4,20,0.00
2014-11-25,59.2,47.7,40.2,42.9,39.2,35.2,89,74,41,30.23,30.04,11,0,11,0.00
2014-11-26,70.3,54.7,39.5,51.4,44.8,36.5,90,72,35,30.25,30.09,22,2,22,0.01
2014-11-27,63.2,52.3,43.0,45.4,38.5,33.2,92,62,34,30.48,30.24,16,2,16,0.00
2014-11-28,63.2,53.0,40.1,55.8,46.8,36.2,89,80,69,30.37,30.08,17,4,17,0.00
2014-11-29,74.2,65.8,56.9,62.8,59.7,53.4,89,81,63,30.18,30.05,27,6,27,0.00
2014-11-30,76.2,67.5,60.5,64.8,61.2,56.8,89,81,63,30.22,30.04,26,4,26,0.00
2014-12-1,77.0,67.1,53.2,68.3,62.2,49.4,92,85,72,30.35,30.14,17,3,17,0.01
2014-12-2,56.7,52.9,48.7,52.9,49.7,45.6,92,89,86,30.25,30.14,13,3,13,0.01
2014-12-3,68.8,57.5,50.0,59.6,53.0,47.1,90,85,71,30.27,30.11,10,1,10,0.00
2014-12-4,70.8,61.7,53.5,65.7,58.2,50.1,89,88,83,30.18,30.08,15,2,15,0.00
2014-12-5,76.8,70.7,67.2,70.7,66.5,63.5,89,87,78,30.17,30.07,25,5,25,0.00
2014-12-6,75.2,67.9,59.0,68.2,63.4,53.4,90,85,76,30.28,30.15,16,3,16,0.08
2014-12-7,60.6,54.0,47.7,53.6,47.7,43.1,88,79,65,30.34,30.17,16,4,16,0.00
2014-12-8,63.0,50.9,41.5,49.0,44.2,38.5,89,79,58,30.32,30.16,11,1,11,0.00
2014-12-9,67.6,51.8,41.2,50.5,45.1,38.2,89,79,50,30.37,30.16,11,1,11,0.01
2014-12-10,63.2,50.9,43.5,49.8,45.1,40.5,89,81,61,30.28,30.12,12,1,12,0.00
2014-12-11,65.4,54.4,47.0,99.9,47.5,42.2,89,76,60,30.26,30.12,9,1,9,0.00
2014-12-12,66.8,45.6,48.2,99.9,58.2,45.1,89,81,54,30.33,30.18,9,1,10,0.00
2014-12-13,69.5,58.6,48.6,58.3,52.9,45.5,89,82,65,30.29,30.07,13,3,14,0.01
2014-12-14,70.0,63.3,54.6,61.3,57.9,50.8,89,83,72,30.14,29.94,20,6,20,0.00
2014-12-15,75.1,68.3,60.5,69.3,63.1,44.7,89,84,56,30.07,29.90,30,6,30,0.17
2014-12-16,62.2,55.2,45.8,45.6,41.5,38.3,82,61,46,30.29,30.07,15,2,15,0.00
2014-12-17,60.2,51.1,42.0,49.8,43.1,38.1,87,75,59,30.23,30.05,12,2,12,0.00
2014-12-18,62.4,57.6,54.7,57.4,53.4,49.6,89,86,78,30.09,29.98,12,3,12,0.00
2014-12-19,58.1,54.9,49.7,54.9,51.8,46.4,92,89,89,30.04,29.95,19,4,19,0.85
2014-12-20,59.3,51.2,45.6,51.5,47.1,42.2,92,86,71,30.14,30.01,16,4,16,0.07
2014-12-21,52.8,47.9,41.4,49.6,44.9,38.7,90,89,87,30.09,29.82,11,0,11,0.03
2014-12-22,72.7,61.9,51.4,65.7,57.9,48.3,92,87,75,29.83,29.62,28,5,28,0.02
2014-12-23,63.1,14.4,-39.3,99.9,89.9,-22.4,89,41,74,29.75,29.49,22,4,22,0.03
2014-12-24,3276.7,0.0,200.0,99.9,99.9,39.0,92,56,65,30.03,29.72,19,4,19,0.03
2014-12-25,3276.7,18.8,51.0,99.9,81.6,46.2,91,80,61,30.22,30.01,22,3,22,0.02
2014-12-26,60.8,30.2,-39.3,99.9,72.1,-44.2,89,86,75,30.07,29.98,21,7,21,0.03
2014-12-27,-39.3,-0.3,-39.3,99.9,98.9,-44.4,75,14,74,30.05,29.97,23,5,23,0.03
2014-12-28,3276.7,0.0,200.0,99.9,99.9,99.9,0,0,100,30.10,30.00,16,2,16,0.01
2014-12-29,3276.7,0.0,200.0,99.9,99.9,99.9,0,0,100,30.14,30.01,5,1,7,0.02
2014-12-30,3276.7,0.0,200.0,99.9,99.9,99.9,0,0,100,30.33,30.13,16,4,17,0.02
2014-12-31,3276.7,0.0,200.0,99.9,99.9,99.9,0,0,100,30.41,30.23,18,5,18,0.01
2015-1-1,3276.7,0.0,200.0,99.9,99.2,0.0,0,0,100,30.24,29.99,15,4,17,0.02
2015-1-2,3276.7,0.0,200.0,99.9,99.9,99.9,0,0,100,30.08,29.88,23,4,23,0.02